Back to catalog

USA 483

AliveMilitaryVLEO
NORAD 62552·PAYLOAD·🇺🇸 United States

Launched Jan 10, 2025 from Vandenberg Space Force Base

Loading…

Next Passes (next 24 hours)

TLE

StaleSource: Mike McCants

Epoch: Aug 24, 2026, 01:47 UTC

1 62552U 25005W   26236.07470279 0.00000000  00000-0  00000-0 0    00
2 62552  70.0135 231.5285 0003000  66.1817 293.8182 14.96713588    01

Track USA 483 in real time with AllMySat

Download on the App Store